Time,TemperatureF,DewpointF,PressureIn,WindDirection,WindDirectionDegrees,WindSpeedMPH,WindSpeedGustMPH,Humidity,HourlyPrecipIn,Conditions,Clouds,dailyrainin,SoftwareType,DateUTC
2013-01-10 00:03:00,42.1,34.7,30.18,West,265,1.0,1.0,75,0.00,,,0.00,Wunderground v.1.15,2013-01-10 05:03:00,
2013-01-10 00:08:00,41.8,34.5,30.18,NNW,336,0.0,1.0,75,0.00,,,0.00,Wunderground v.1.15,2013-01-10 05:08:00,
2013-01-10 00:13:00,41.7,34.4,30.18,WNW,294,1.0,1.0,75,0.00,,,0.00,Wunderground v.1.15,2013-01-10 05:13:00,
2013-01-10 00:23:00,41.6,34.3,30.18,NNW,327,1.0,1.0,75,0.00,,,0.00,Wunderground v.1.15,2013-01-10 05:23:00,
2013-01-10 00:28:00,41.6,34.9,30.19,NNW,337,1.0,1.0,77,0.00,,,0.00,Wunderground v.1.15,2013-01-10 05:28:00,
2013-01-10 00:33:00,41.3,34.0,30.19,NW,325,1.0,1.0,75,0.00,,,0.00,Wunderground v.1.15,2013-01-10 05:33:00,
2013-01-10 00:38:00,41.2,33.9,30.19,NW,319,1.0,2.0,75,0.00,,,0.00,Wunderground v.1.15,2013-01-10 05:38:00,
2013-01-10 00:43:00,41.4,33.7,30.19,West,259,3.0,3.0,74,0.00,,,0.00,Wunderground v.1.15,2013-01-10 05:43:00,
2013-01-10 00:53:00,41.4,33.4,30.18,NW,318,2.0,2.0,73,0.00,,,0.00,Wunderground v.1.15,2013-01-10 05:53:00,
2013-01-10 00:58:00,41.4,33.0,30.19,North,355,2.0,2.0,72,0.00,,,0.00,Wunderground v.1.15,2013-01-10 05:58:00,
2013-01-10 01:03:00,41.3,32.6,30.19,NNW,342,2.0,3.0,71,0.00,,,0.00,Wunderground v.1.15,2013-01-10 06:03:00,
2013-01-10 01:08:00,41.3,32.6,30.19,NW,319,2.0,3.0,71,0.00,,,0.00,Wunderground v.1.15,2013-01-10 06:08:00,
2013-01-10 01:13:00,41.4,32.3,30.19,WNW,292,2.0,2.0,70,0.00,,,0.00,Wunderground v.1.15,2013-01-10 06:13:00,
2013-01-10 01:18:00,41.3,32.2,30.20,NNE,24,3.0,3.0,70,0.00,,,0.00,Wunderground v.1.15,2013-01-10 06:18:00,
2013-01-10 01:28:00,41.1,31.7,30.20,WNW,290,2.0,4.0,69,0.00,,,0.00,Wunderground v.1.15,2013-01-10 06:28:00,
2013-01-10 01:33:00,41.1,31.7,30.21,NW,308,2.0,3.0,69,0.00,,,0.00,Wunderground v.1.15,2013-01-10 06:33:00,
2013-01-10 01:38:00,41.0,31.6,30.21,WNW,289,2.0,3.0,69,0.00,,,0.00,Wunderground v.1.15,2013-01-10 06:38:00,
2013-01-10 01:43:00,40.9,31.5,30.22,NNW,338,2.0,2.0,69,0.00,,,0.00,Wunderground v.1.15,2013-01-10 06:43:00,
2013-01-10 01:53:00,40.8,31.4,30.22,West,273,1.0,3.0,69,0.00,,,0.00,Wunderground v.1.15,2013-01-10 06:53:00,
2013-01-10 01:58:00,40.6,31.2,30.23,West,277,2.0,3.0,69,0.00,,,0.00,Wunderground v.1.15,2013-01-10 06:58:00,
2013-01-10 02:03:00,40.4,31.0,30.23,NNW,338,2.0,2.0,69,0.00,,,0.00,Wunderground v.1.15,2013-01-10 07:03:00,
2013-01-10 02:08:00,40.2,30.8,30.23,NNW,330,2.0,2.0,69,0.00,,,0.00,Wunderground v.1.15,2013-01-10 07:08:00,
2013-01-10 02:17:00,40.1,31.0,30.23,NNW,334,2.0,-999.0,69,-99.99,,,0.00,weatherlink.com 1.10,2013-01-10 07:17:00,
2013-01-10 02:23:00,40.2,30.8,30.24,NNW,338,1.0,3.0,69,0.00,,,0.00,Wunderground v.1.15,2013-01-10 07:23:00,
2013-01-10 02:28:00,40.2,30.5,30.25,North,11,2.0,3.0,68,0.00,,,0.00,Wunderground v.1.15,2013-01-10 07:28:00,
2013-01-10 02:33:00,40.2,29.7,30.25,NNW,329,2.0,2.0,66,0.00,,,0.00,Wunderground v.1.15,2013-01-10 07:33:00,
2013-01-10 02:43:00,40.2,29.7,30.25,WNW,303,1.0,1.0,66,0.00,,,0.00,Wunderground v.1.15,2013-01-10 07:43:00,
2013-01-10 02:48:00,40.1,29.3,30.26,West,263,2.0,2.0,65,0.00,,,0.00,Wunderground v.1.15,2013-01-10 07:48:00,
2013-01-10 02:53:00,40.2,29.7,30.27,NW,314,2.0,2.0,66,0.00,,,0.00,Wunderground v.1.15,2013-01-10 07:53:00,
2013-01-10 02:58:00,40.3,29.5,30.27,NNW,329,1.0,2.0,65,0.00,,,0.00,Wunderground v.1.15,2013-01-10 07:58:00,
2013-01-10 03:03:00,40.0,29.2,30.26,NNW,336,1.0,2.0,65,0.00,,,0.00,Wunderground v.1.15,2013-01-10 08:03:00,
2013-01-10 03:13:00,39.5,29.1,30.27,NNE,22,1.0,1.0,66,0.00,,,0.00,Wunderground v.1.15,2013-01-10 08:13:00,
2013-01-10 03:18:00,39.5,28.7,30.27,NNW,332,1.0,1.0,65,0.00,,,0.00,Wunderground v.1.15,2013-01-10 08:18:00,
2013-01-10 03:23:00,39.5,28.7,30.27,WNW,288,1.0,1.0,65,0.00,,,0.00,Wunderground v.1.15,2013-01-10 08:23:00,
2013-01-10 03:32:00,39.4,28.0,30.28,NW,309,1.0,-999.0,65,-99.99,,,0.00,weatherlink.com 1.10,2013-01-10 08:32:00,
2013-01-10 03:38:00,39.3,28.5,30.28,North,355,0.0,0.0,65,0.00,,,0.00,Wunderground v.1.15,2013-01-10 08:38:00,
2013-01-10 03:43:00,39.1,28.3,30.28,West,281,0.0,0.0,65,0.00,,,0.00,Wunderground v.1.15,2013-01-10 08:43:00,
2013-01-10 03:53:00,38.6,28.2,30.29,ENE,78,0.0,0.0,66,0.00,,,0.00,Wunderground v.1.15,2013-01-10 08:53:00,
2013-01-10 03:58:00,38.5,28.1,30.29,ENE,78,0.0,0.0,66,0.00,,,0.00,Wunderground v.1.15,2013-01-10 08:58:00,
2013-01-10 04:03:00,38.4,28.4,30.29,NW,323,0.0,0.0,67,0.00,,,0.00,Wunderground v.1.15,2013-01-10 09:03:00,
2013-01-10 04:08:00,38.0,28.0,30.30,NW,319,1.0,1.0,67,0.00,,,0.00,Wunderground v.1.15,2013-01-10 09:08:00,
2013-01-10 04:13:00,38.0,28.0,30.29,NW,318,0.0,0.0,67,0.00,,,0.00,Wunderground v.1.15,2013-01-10 09:13:00,
2013-01-10 04:18:00,37.9,28.3,30.29,NW,324,0.0,0.0,68,0.00,,,0.00,Wunderground v.1.15,2013-01-10 09:18:00,
2013-01-10 04:28:00,37.5,28.2,30.29,NW,319,0.0,0.0,69,0.00,,,0.00,Wunderground v.1.15,2013-01-10 09:28:00,
2013-01-10 04:33:00,37.5,28.2,30.30,North,355,0.0,0.0,69,0.00,,,0.00,Wunderground v.1.15,2013-01-10 09:33:00,
2013-01-10 04:38:00,37.5,28.2,30.30,NNW,340,0.0,0.0,69,0.00,,,0.00,Wunderground v.1.15,2013-01-10 09:38:00,
2013-01-10 04:48:00,37.5,28.6,30.31,NNW,340,0.0,0.0,70,0.00,,,0.00,Wunderground v.1.15,2013-01-10 09:48:00,
2013-01-10 04:53:00,37.4,28.9,30.30,NNW,340,0.0,0.0,71,0.00,,,0.00,Wunderground v.1.15,2013-01-10 09:53:00,
2013-01-10 04:58:00,37.1,28.6,30.30,NNW,340,0.0,0.0,71,0.00,,,0.00,Wunderground v.1.15,2013-01-10 09:58:00,
2013-01-10 05:03:00,36.8,28.3,30.31,WNW,302,0.0,0.0,71,0.00,,,0.00,Wunderground v.1.15,2013-01-10 10:03:00,
2013-01-10 05:08:00,36.8,28.3,30.31,NW,326,1.0,1.0,71,0.00,,,0.00,Wunderground v.1.15,2013-01-10 10:08:00,
2013-01-10 05:18:00,36.8,28.3,30.31,WNW,288,1.0,1.0,71,0.00,,,0.00,Wunderground v.1.15,2013-01-10 10:18:00,
2013-01-10 05:34:00,36.9,28.0,30.32,NNW,334,0.0,-999.0,71,-99.99,,,0.00,weatherlink.com 1.10,2013-01-10 10:34:00,
2013-01-10 05:49:00,37.0,28.0,30.33,NNE,13,1.0,-999.0,70,-99.99,,,0.00,weatherlink.com 1.10,2013-01-10 10:49:00,
2013-01-10 06:04:00,36.9,28.0,30.33,NNE,20,0.0,-999.0,71,-99.99,,,0.00,weatherlink.com 1.10,2013-01-10 11:04:00,
2013-01-10 06:19:00,36.8,28.0,30.34,NW,306,0.0,-999.0,71,-99.99,,,0.00,weatherlink.com 1.10,2013-01-10 11:19:00,
2013-01-10 06:34:00,36.1,28.0,30.36,NNW,337,0.0,-999.0,72,-99.99,,,0.00,weatherlink.com 1.10,2013-01-10 11:34:00,
2013-01-10 06:49:00,35.8,28.0,30.36,NNW,337,0.0,-999.0,73,-99.99,,,0.00,weatherlink.com 1.10,2013-01-10 11:49:00,
2013-01-10 07:04:00,35.3,27.0,30.38,NNW,337,0.0,-999.0,73,-99.99,,,0.00,weatherlink.com 1.10,2013-01-10 12:04:00,
2013-01-10 07:19:00,34.5,27.0,30.39,NNW,337,0.0,-999.0,74,-99.99,,,0.00,weatherlink.com 1.10,2013-01-10 12:19:00,
2013-01-10 07:34:00,34.3,27.0,30.40,NNW,337,0.0,-999.0,76,-99.99,,,0.00,weatherlink.com 1.10,2013-01-10 12:34:00,
2013-01-10 07:49:00,33.7,27.0,30.42,NNW,337,0.0,-999.0,77,-99.99,,,0.00,weatherlink.com 1.10,2013-01-10 12:49:00,
2013-01-10 08:04:00,34.4,28.0,30.43,NNW,337,0.0,-999.0,76,-99.99,,,0.00,weatherlink.com 1.10,2013-01-10 13:04:00,
2013-01-10 08:19:00,35.5,28.0,30.43,NNW,337,0.0,-999.0,74,-99.99,,,0.00,weatherlink.com 1.10,2013-01-10 13:19:00,
2013-01-10 08:34:00,36.6,28.0,30.44,NNW,341,0.0,-999.0,71,-99.99,,,0.00,weatherlink.com 1.10,2013-01-10 13:34:00,
2013-01-10 08:49:00,37.3,28.0,30.45,NNE,17,0.0,-999.0,70,-99.99,,,0.00,weatherlink.com 1.10,2013-01-10 13:49:00,
2013-01-10 09:08:00,37.8,28.0,30.45,NW,306,1.0,-999.0,67,-99.99,,,0.00,weatherlink.com 1.10,2013-01-10 14:08:00,
2013-01-10 09:19:00,38.3,27.0,30.46,NE,49,0.0,-999.0,65,-99.99,,,0.00,weatherlink.com 1.10,2013-01-10 14:19:00,
2013-01-10 09:34:00,38.9,28.0,30.47,NNW,330,1.0,-999.0,65,-99.99,,,0.00,weatherlink.com 1.10,2013-01-10 14:34:00,
2013-01-10 09:49:00,39.2,27.0,30.47,NNE,21,2.0,-999.0,63,-99.99,,,0.00,weatherlink.com 1.10,2013-01-10 14:49:00,
2013-01-10 10:04:00,39.7,27.0,30.47,NNW,346,0.0,-999.0,62,-99.99,,,0.00,weatherlink.com 1.10,2013-01-10 15:04:00,
2013-01-10 10:19:00,39.8,28.0,30.47,North,351,7.0,-999.0,62,-99.99,,,0.00,weatherlink.com 1.10,2013-01-10 15:19:00,
2013-01-10 10:34:00,40.3,27.0,30.47,NNW,335,3.0,-999.0,60,-99.99,,,0.00,weatherlink.com 1.10,2013-01-10 15:34:00,
2013-01-10 10:49:00,41.0,28.0,30.46,NNE,17,4.0,-999.0,61,-99.99,,,0.00,weatherlink.com 1.10,2013-01-10 15:49:00,
2013-01-10 11:04:00,41.4,27.0,30.45,NE,55,3.0,-999.0,57,-99.99,,,0.00,weatherlink.com 1.10,2013-01-10 16:04:00,
2013-01-10 11:19:00,41.4,27.0,30.45,North,9,2.0,-999.0,56,-99.99,,,0.00,weatherlink.com 1.10,2013-01-10 16:19:00,
2013-01-10 11:34:00,41.8,27.0,30.44,NW,325,4.0,-999.0,55,-99.99,,,0.00,weatherlink.com 1.10,2013-01-10 16:34:00,
2013-01-10 11:49:00,42.3,27.0,30.42,NNW,343,6.0,-999.0,56,-99.99,,,0.00,weatherlink.com 1.10,2013-01-10 16:49:00,
2013-01-10 12:04:00,42.1,27.0,30.41,North,5,0.0,-999.0,55,-99.99,,,0.00,weatherlink.com 1.10,2013-01-10 17:04:00,
2013-01-10 12:20:00,42.5,27.0,30.41,NE,41,9.0,-999.0,54,-99.99,,,0.00,weatherlink.com 1.10,2013-01-10 17:20:00,
2013-01-10 12:35:00,42.4,27.0,30.41,North,9,2.0,-999.0,55,-99.99,,,0.00,weatherlink.com 1.10,2013-01-10 17:35:00,
2013-01-10 12:50:00,42.5,27.0,30.42,NNW,343,1.0,-999.0,54,-99.99,,,0.00,weatherlink.com 1.10,2013-01-10 17:50:00,
2013-01-10 13:05:00,42.8,27.0,30.42,NE,35,0.0,-999.0,54,-99.99,,,0.00,weatherlink.com 1.10,2013-01-10 18:05:00,
2013-01-10 13:20:00,42.8,27.0,30.42,NNE,29,4.0,-999.0,54,-99.99,,,0.00,weatherlink.com 1.10,2013-01-10 18:20:00,
2013-01-10 13:35:00,43.1,28.0,30.43,NE,49,1.0,-999.0,55,-99.99,,,0.00,weatherlink.com 1.10,2013-01-10 18:35:00,
2013-01-10 13:50:00,43.0,27.0,30.43,NNW,327,1.0,-999.0,54,-99.99,,,0.00,weatherlink.com 1.10,2013-01-10 18:50:00,
2013-01-10 14:05:00,43.1,27.0,30.43,WNW,302,6.0,-999.0,53,-99.99,,,0.00,weatherlink.com 1.10,2013-01-10 19:05:00,
2013-01-10 14:20:00,43.2,27.0,30.44,NW,323,0.0,-999.0,54,-99.99,,,0.00,weatherlink.com 1.10,2013-01-10 19:20:00,
2013-01-10 14:35:00,43.1,27.0,30.44,NE,40,4.0,-999.0,53,-99.99,,,0.00,weatherlink.com 1.10,2013-01-10 19:35:00,
2013-01-10 14:50:00,42.9,27.0,30.44,NNE,26,2.0,-999.0,54,-99.99,,,0.00,weatherlink.com 1.10,2013-01-10 19:50:00,
2013-01-10 15:05:00,43.0,27.0,30.45,NE,39,2.0,-999.0,54,-99.99,,,0.00,weatherlink.com 1.10,2013-01-10 20:05:00,
2013-01-10 15:20:00,43.2,27.0,30.46,NNW,342,0.0,-999.0,54,-99.99,,,0.00,weatherlink.com 1.10,2013-01-10 20:20:00,
2013-01-10 15:35:00,43.2,27.0,30.46,NE,40,1.0,-999.0,53,-99.99,,,0.00,weatherlink.com 1.10,2013-01-10 20:35:00,
2013-01-10 15:50:00,42.9,27.0,30.47,NNE,30,1.0,-999.0,54,-99.99,,,0.00,weatherlink.com 1.10,2013-01-10 20:50:00,
2013-01-10 16:05:00,42.7,27.0,30.47,NNE,24,1.0,-999.0,54,-99.99,,,0.00,weatherlink.com 1.10,2013-01-10 21:05:00,
2013-01-10 16:20:00,42.4,27.0,30.47,NNW,330,0.0,-999.0,54,-99.99,,,0.00,weatherlink.com 1.10,2013-01-10 21:20:00,
2013-01-10 16:35:00,42.2,27.0,30.47,NNE,28,0.0,-999.0,56,-99.99,,,0.00,weatherlink.com 1.10,2013-01-10 21:35:00,
2013-01-10 16:50:00,41.5,27.0,30.47,NW,323,0.0,-999.0,57,-99.99,,,0.00,weatherlink.com 1.10,2013-01-10 21:50:00,
2013-01-10 17:05:00,40.9,27.0,30.48,NW,323,0.0,-999.0,57,-99.99,,,0.00,weatherlink.com 1.10,2013-01-10 22:05:00,
2013-01-10 17:20:00,40.1,26.0,30.48,NW,323,0.0,-999.0,58,-99.99,,,0.00,weatherlink.com 1.10,2013-01-10 22:20:00,
2013-01-10 17:35:00,39.5,26.0,30.49,NW,323,0.0,-999.0,59,-99.99,,,0.00,weatherlink.com 1.10,2013-01-10 22:35:00,
2013-01-10 17:50:00,39.1,26.0,30.49,NW,322,0.0,-999.0,60,-99.99,,,0.00,weatherlink.com 1.10,2013-01-10 22:50:00,
2013-01-10 18:05:00,38.6,26.0,30.50,NW,322,0.0,-999.0,61,-99.99,,,0.00,weatherlink.com 1.10,2013-01-10 23:05:00,
2013-01-10 18:20:00,38.1,26.0,30.50,NW,322,0.0,-999.0,62,-99.99,,,0.00,weatherlink.com 1.10,2013-01-10 23:20:00,
2013-01-10 18:35:00,37.4,26.0,30.50,NW,323,0.0,-999.0,63,-99.99,,,0.00,weatherlink.com 1.10,2013-01-10 23:35:00,
2013-01-10 18:50:00,35.9,26.0,30.52,NW,321,0.0,-999.0,67,-99.99,,,0.00,weatherlink.com 1.10,2013-01-10 23:50:00,
2013-01-10 19:03:00,35.7,25.8,30.51,NW,321,0.0,0.0,67,0.00,,,0.00,Wunderground v.1.15,2013-01-11 00:03:00,
2013-01-10 19:08:00,35.9,26.7,30.51,NNW,329,0.0,2.0,69,0.00,,,0.00,Wunderground v.1.15,2013-01-11 00:08:00,
2013-01-10 19:13:00,35.4,26.2,30.51,NNW,330,0.0,0.0,69,0.00,,,0.00,Wunderground v.1.15,2013-01-11 00:13:00,
2013-01-10 19:18:00,35.2,25.7,30.51,NNW,330,0.0,0.0,68,0.00,,,0.00,Wunderground v.1.15,2013-01-11 00:18:00,
2013-01-10 19:28:00,35.3,25.8,30.52,NNW,330,0.0,0.0,68,0.00,,,0.00,Wunderground v.1.15,2013-01-11 00:28:00,
2013-01-10 19:35:00,35.3,25.0,30.52,NNW,330,0.0,-999.0,67,-99.99,,,0.00,weatherlink.com 1.10,2013-01-11 00:35:00,
2013-01-10 19:43:00,35.3,25.8,30.51,NNW,330,0.0,0.0,68,0.00,,,0.00,Wunderground v.1.15,2013-01-11 00:43:00,
2013-01-10 19:48:00,35.3,25.8,30.52,NNW,330,0.0,0.0,68,0.00,,,0.00,Wunderground v.1.15,2013-01-11 00:48:00,
2013-01-10 19:53:00,35.2,25.7,30.51,NNW,330,0.0,0.0,68,0.00,,,0.00,Wunderground v.1.15,2013-01-11 00:53:00,
2013-01-10 19:58:00,34.4,26.3,30.52,NNW,330,0.0,0.0,72,0.00,,,0.00,Wunderground v.1.15,2013-01-11 00:58:00,
2013-01-10 20:05:00,33.9,25.0,30.53,NNW,330,0.0,-999.0,70,-99.99,,,0.00,weatherlink.com 1.10,2013-01-11 01:05:00,
2013-01-10 20:13:00,33.8,25.0,30.52,NNW,330,0.0,0.0,70,0.00,,,0.00,Wunderground v.1.15,2013-01-11 01:13:00,
2013-01-10 20:20:00,33.8,25.0,30.53,NNW,330,0.0,-999.0,70,-99.99,,,0.00,weatherlink.com 1.10,2013-01-11 01:20:00,
2013-01-10 20:28:00,33.9,25.8,30.53,NNW,330,0.0,2.0,72,0.00,,,0.00,Wunderground v.1.15,2013-01-11 01:28:00,
2013-01-10 20:33:00,33.3,25.2,30.52,NNW,330,1.0,1.0,72,0.00,,,0.00,Wunderground v.1.15,2013-01-11 01:33:00,
2013-01-10 20:43:00,33.7,25.3,30.53,NNW,330,0.0,1.0,71,0.00,,,0.00,Wunderground v.1.15,2013-01-11 01:43:00,
2013-01-10 20:48:00,34.2,25.8,30.52,NNW,336,1.0,2.0,71,0.00,,,0.00,Wunderground v.1.15,2013-01-11 01:48:00,
2013-01-10 20:53:00,34.4,26.0,30.52,NNW,336,1.0,1.0,71,0.00,,,0.00,Wunderground v.1.15,2013-01-11 01:53:00,
2013-01-10 20:58:00,34.3,25.9,30.53,North,11,0.0,1.0,71,0.00,,,0.00,Wunderground v.1.15,2013-01-11 01:58:00,
2013-01-10 21:05:00,34.4,26.0,30.53,NNE,30,0.0,-999.0,70,-99.99,,,0.00,weatherlink.com 1.10,2013-01-11 02:05:00,
2013-01-10 21:13:00,34.9,26.1,30.53,NNE,32,0.0,2.0,70,0.00,,,0.00,Wunderground v.1.15,2013-01-11 02:13:00,
2013-01-10 21:18:00,35.1,25.9,30.53,NNE,32,0.0,2.0,69,0.00,,,0.00,Wunderground v.1.15,2013-01-11 02:18:00,
2013-01-10 21:23:00,35.2,26.0,30.53,NNE,32,1.0,3.0,69,0.00,,,0.00,Wunderground v.1.15,2013-01-11 02:23:00,
2013-01-10 21:28:00,35.2,26.0,30.53,NNE,32,1.0,3.0,69,0.00,,,0.00,Wunderground v.1.15,2013-01-11 02:28:00,
2013-01-10 21:37:00,35.2,26.0,30.52,ENE,57,0.0,-999.0,69,-99.99,,,0.00,weatherlink.com 1.10,2013-01-11 02:37:00,
2013-01-10 21:43:00,35.1,25.9,30.52,ENE,57,1.0,1.0,69,0.00,,,0.00,Wunderground v.1.15,2013-01-11 02:43:00,
2013-01-10 21:52:00,35.2,26.0,30.53,NE,49,0.0,-999.0,69,-99.99,,,0.00,weatherlink.com 1.10,2013-01-11 02:52:00,
2013-01-10 21:58:00,35.2,26.0,30.53,NE,50,0.0,2.0,69,0.00,,,0.00,Wunderground v.1.15,2013-01-11 02:58:00,
2013-01-10 22:03:00,35.2,26.0,30.53,NE,49,0.0,2.0,69,0.00,,,0.00,Wunderground v.1.15,2013-01-11 03:03:00,
2013-01-10 22:13:00,35.2,26.0,30.53,NE,49,1.0,1.0,69,0.00,,,0.00,Wunderground v.1.15,2013-01-11 03:13:00,
2013-01-10 22:22:00,35.1,26.0,30.53,NE,38,0.0,-999.0,70,-99.99,,,0.00,weatherlink.com 1.10,2013-01-11 03:22:00,
2013-01-10 22:28:00,35.1,26.3,30.52,NE,53,1.0,2.0,70,0.00,,,0.00,Wunderground v.1.15,2013-01-11 03:28:00,
2013-01-10 22:33:00,35.1,26.3,30.52,NE,53,2.0,2.0,70,0.00,,,0.00,Wunderground v.1.15,2013-01-11 03:33:00,
2013-01-10 22:43:00,35.0,26.2,30.52,ENE,57,1.0,1.0,70,0.00,,,0.00,Wunderground v.1.15,2013-01-11 03:43:00,
2013-01-10 22:48:00,35.0,26.2,30.52,NE,49,2.0,2.0,70,0.00,,,0.00,Wunderground v.1.15,2013-01-11 03:48:00,
2013-01-10 22:53:00,35.0,26.2,30.53,NE,53,2.0,2.0,70,0.00,,,0.00,Wunderground v.1.15,2013-01-11 03:53:00,
2013-01-10 23:03:00,35.0,26.5,30.52,NE,53,1.0,3.0,71,0.00,,,0.00,Wunderground v.1.15,2013-01-11 04:03:00,
2013-01-10 23:08:00,35.0,26.5,30.52,ENE,63,2.0,3.0,71,0.00,,,0.00,Wunderground v.1.15,2013-01-11 04:08:00,
2013-01-10 23:13:00,35.0,26.5,30.52,NE,51,2.0,2.0,71,0.00,,,0.00,Wunderground v.1.15,2013-01-11 04:13:00,
2013-01-10 23:18:00,35.0,26.5,30.52,NE,44,2.0,2.0,71,0.00,,,0.00,Wunderground v.1.15,2013-01-11 04:18:00,
2013-01-10 23:28:00,35.0,26.5,30.52,NE,43,1.0,4.0,71,0.00,,,0.00,Wunderground v.1.15,2013-01-11 04:28:00,
2013-01-10 23:33:00,35.0,26.5,30.53,ENE,67,2.0,3.0,71,0.00,,,0.00,Wunderground v.1.15,2013-01-11 04:33:00,
2013-01-10 23:38:00,34.9,26.4,30.53,ENE,67,1.0,3.0,71,0.00,,,0.00,Wunderground v.1.15,2013-01-11 04:38:00,
2013-01-10 23:43:00,34.8,26.4,30.53,ENE,67,0.0,0.0,71,0.00,,,0.00,Wunderground v.1.15,2013-01-11 04:43:00,
2013-01-10 23:52:00,34.5,26.0,30.53,ENE,67,2.0,-999.0,72,-99.99,,,0.00,weatherlink.com 1.10,2013-01-11 04:52:00,
2013-01-10 23:58:00,34.3,26.2,30.53,ENE,67,1.0,1.0,72,0.00,,,0.00,Wunderground v.1.15,2013-01-11 04:58:00,